Погода в Зоне

Россия / Удмуртская Республика     57°10′45″N   51°21′30″E
темп.,
°C
ветер,
м/с
пор.,
м/с
влажн.,
%
обл.,
%
осадки,
мм/ч
давл.,
гПа
погр.,
м
14 апреля, ср
ср1401:00+5юз2499100 0.0 1032101
04:00+5юз14100100 0.0 1032110
07:00+5ююз2399100 0.0 1031109
10:00+12ююз247851 0.0 1030300
13:00+17ююз35565 0.0 1028875
16:00+18ююз355336 0.0 10271087
19:00+13ю23765 0.0 102541
22:00+10ю25885 0.0 102573
15 апреля, чт
чт1501:00+9ю23935 0.0 102458
04:00+8ююз23945 0.0 102346
07:00+8ю26920 0.0 1022153
10:00+14ююз36740 0.0 1021544
13:00+17юз456486 0.0 10191284
16:00+16юз2565100 0.1 1018406
19:00+13юз2481100 0.2 101866
22:00+9ссв61283100 2.1 1020480
16 апреля, пт
пт1601:00+6ссв51182100 0.0 1022567
04:00+5св5108242 0.0 1024626
07:00+4св4107768 0.0 1025677
10:00+7всв575216 0.0 1026877
13:00+10св45360 0.0 10261227
16:00+10ссв45335 0.0 10261377
19:00+7ссв264645 0.0 1026163
22:00+3ссв236033 0.0 102754
17 апреля, сб
сб1701:00+2ссв246750 0.0 102879
04:000с22695 0.0 102824
07:00+2с25624 0.0 1028147
10:00+7с34410 0.0 10281119
13:00+10ссз464493 0.0 10271880
16:00+9с5650100 0.0 10271496
19:00+7ссз47615 0.0 10271026
22:00+3ссз39765 0.0 1028288
18 апреля, вс
вс1801:00+2ссз310835 0.0 1028424
04:000ссз310835 0.0 1029393
07:00+1ссз410755 0.0 1029604
10:00+5с58515 0.0 10301151
13:00+7с594393 0.0 10301747
16:00+6св4636100 0.1 10322131
19:00+5с47545 0.0 1033862
22:00+1с27715 0.0 1034145